Date String (YYYY-MM-DD hh:mm:ss) UTC,Instrument flags,absolute air pressure of the measurement (hPa),sample flow rate (lpm),inlet stack bypass flow (lpm),air temperature of the measurement (°C),ambient temperature measured by the external sensor (°C),aerosol sample conditioner tube jacket temperature (°C),OPC LED temperature (°C),internal box temperature (°C),relative humidity of the measurement (%),span deviation,mass concentration of particles derived from Lorenz-Mie calculation of OPC scattering (μg/m³),mass concentration of particles derived from Lorenz-Mie calculation of OPC scattering (μg/m³),mass concentration of particles derived from Lorenz-Mie calculation of OPC scattering (μg/m³)
DateTimeUTC,F1_M11,P_M11,Q1_M11,Q2_M11,T1_M11,T2_M11,T3_M11,T4_M11,T5_M11,U1_M11,ZSPAN_M11,X0_M11,X2_M11,X1_M11
2023-08-08 00:00:00,SystemResetWarning,0832.9,5.00,000.00,029.3,025.6,000.0,037.6,030.7,30.8,0000.0,0012.80,0005.29,0004.23
2023-08-08 00:01:00,SystemResetWarning,0833.3,5.01,000.00,029.2,024.5,000.0,037.5,030.4,31.2,0000.0,0012.19,0005.28,0004.23
2023-08-08 00:02:00,SystemResetWarning,0833.3,5.01,000.00,029.1,024.6,000.0,037.4,030.2,31.1,-000.1,0012.39,0005.28,0004.23
2023-08-08 00:03:00,SystemResetWarning,0833.3,5.00,000.00,029.0,025.0,000.0,037.5,030.2,31.5,-000.3,0011.84,0005.34,0004.26
2023-08-08 00:04:00,SystemResetWarning,0833.4,5.00,000.00,029.0,025.5,000.0,037.5,030.3,31.9,-000.6,0011.76,0005.41,0004.28
2023-08-08 00:05:00,SystemResetWarning,0832.9,5.01,000.00,029.0,026.0,000.0,037.5,030.4,32.0,-000.8,0011.83,0005.40,0004.30
2023-08-08 00:06:00,SystemResetWarning,0832.9,5.00,000.00,029.0,026.4,000.0,037.5,030.6,31.9,-000.8,0012.20,0005.46,0004.32
2023-08-08 00:07:00,SystemResetWarning,0833.0,5.01,000.00,029.0,026.8,000.0,037.5,030.7,31.7,-000.7,0012.56,0005.55,0004.36
2023-08-08 00:08:00,SystemResetWarning,0833.0,4.99,000.00,029.0,027.1,000.0,037.5,030.7,31.8,-000.9,0013.55,0005.57,0004.40
2023-08-08 00:09:00,SystemResetWarning,0833.0,5.00,000.00,029.1,027.4,000.0,037.6,030.8,32.0,-000.4,0014.03,0005.54,0004.45
2023-08-08 00:10:00,SystemResetWarning,0833.2,5.00,000.00,029.1,027.6,000.0,037.6,030.8,32.0,0000.3,0013.78,0005.55,0004.49
2023-08-08 00:11:00,SystemResetWarning,0833.3,5.00,000.00,029.1,027.8,000.0,037.6,030.9,31.7,0000.4,0014.03,0005.62,0004.54
2023-08-08 00:12:00,SystemResetWarning,0833.1,5.00,000.00,029.2,028.0,000.0,037.6,031.0,31.2,0001.3,0014.77,0005.63,0004.59
2023-08-08 00:13:00,SystemResetWarning,0833.2,5.00,000.00,029.2,028.1,000.0,037.7,031.0,31.4,0002.1,0014.26,0005.64,0004.64
2023-08-08 00:14:00,SystemResetWarning,0833.2,4.99,000.00,029.3,027.5,000.0,037.6,030.9,31.5,0002.2,0013.92,0005.71,0004.69
2023-08-08 00:15:00,SystemResetWarning,0833.2,5.00,000.00,029.2,025.8,000.0,037.5,030.6,31.6,0002.4,0014.21,0005.75,0004.75
2023-08-08 00:16:00,SystemResetWarning,0833.2,5.01,000.00,029.1,025.5,000.0,037.4,030.5,31.8,0002.3,0014.01,0005.79,0004.79
2023-08-08 00:17:00,SystemResetWarning,0833.2,5.01,000.00,029.1,025.7,000.0,037.4,030.4,31.9,0001.6,0013.73,0005.84,0004.83
2023-08-08 00:18:00,SystemResetWarning,0833.3,5.00,000.00,029.0,026.0,000.0,037.5,030.4,32.1,0001.5,0013.47,0005.82,0004.87
2023-08-08 00:19:00,SystemResetWarning,0833.2,4.99,000.00,029.0,026.4,000.0,037.5,030.6,32.2,0002.1,0012.86,0005.82,0004.90
2023-08-08 00:20:00,SystemResetWarning,0833.3,5.01,000.00,029.1,026.8,000.0,037.5,030.7,31.9,0001.9,0012.81,0005.84,0004.93
2023-08-08 00:21:00,SystemResetWarning,0833.2,5.00,000.00,029.1,027.1,000.0,037.6,030.8,31.7,0001.2,0013.45,0005.86,0004.95
2023-08-08 00:22:00,SystemResetWarning,0833.2,5.01,000.00,029.1,027.4,000.0,037.6,030.8,31.9,0001.2,0013.15,0005.87,0004.97
2023-08-08 00:23:00,SystemResetWarning,0833.3,4.99,000.00,029.2,027.6,000.0,037.6,030.9,31.8,0000.9,0012.34,0005.90,0004.97
2023-08-08 00:24:00,SystemResetWarning,0833.2,5.00,000.00,029.2,027.8,000.0,037.6,031.0,31.8,-000.4,0012.62,0005.96,0004.99
2023-08-08 00:25:00,SystemResetWarning,0833.2,5.00,000.00,029.3,028.0,000.0,037.7,031.0,31.6,-000.8,0013.28,0005.94,0004.99
2023-08-08 00:26:00,SystemResetWarning,0833.2,4.99,000.00,029.3,026.9,000.0,037.6,030.9,31.4,-000.6,0013.66,0005.92,0005.00
2023-08-08 00:27:00,SystemResetWarning,0833.1,5.01,000.00,029.2,025.7,000.0,037.5,030.6,31.5,-000.7,0013.72,0005.93,0005.00
2023-08-08 00:28:00,SystemResetWarning,0833.2,5.01,000.00,029.2,025.5,000.0,037.4,030.5,31.8,-000.4,0013.81,0005.94,0005.02
2023-08-08 00:29:00,SystemResetWarning,0833.2,5.01,000.00,029.1,025.8,000.0,037.5,030.4,31.7,-000.7,0013.88,0005.97,0005.02
2023-08-08 00:30:00,SystemResetWarning,0833.2,4.99,000.00,029.0,026.2,000.0,037.5,030.5,31.6,-000.8,0014.11,0006.03,0005.03
2023-08-08 00:31:00,SystemResetWarning,0833.2,5.00,000.00,029.1,026.6,000.0,037.5,030.6,32.3,-000.7,0013.70,0006.04,0005.03
2023-08-08 00:32:00,SystemResetWarning,0833.2,5.00,000.00,029.1,026.9,000.0,037.5,030.7,31.9,-000.8,0012.95,0006.05,0005.03
2023-08-08 00:33:00,SystemResetWarning,0833.2,5.01,000.00,029.1,027.2,000.0,037.6,030.8,32.1,-001.0,0013.03,0006.03,0005.03
2023-08-08 00:34:00,SystemResetWarning,0833.2,4.99,000.00,029.1,027.5,000.0,037.6,030.9,31.9,-000.9,0012.85,0005.97,0005.01
2023-08-08 00:35:00,SystemResetWarning,0833.2,5.00,000.00,029.2,027.7,000.0,037.6,030.9,31.7,-000.6,0012.98,0005.93,0005.01
2023-08-08 00:36:00,SystemResetWarning,0833.2,5.00,000.00,029.2,027.9,000.0,037.6,031.0,32.3,-000.4,0012.62,0005.92,0005.01
2023-08-08 00:37:00,SystemResetWarning,0833.2,5.00,000.00,029.3,027.9,000.0,037.7,031.0,32.6,0000.0,0012.18,0005.95,0005.00
2023-08-08 00:38:00,SystemResetWarning,0833.2,4.99,000.00,029.3,026.4,000.0,037.5,030.7,32.8,-000.5,0012.32,0005.94,0004.99
2023-08-08 00:39:00,SystemResetWarning,0833.2,5.01,000.00,029.2,025.5,000.0,037.4,030.5,32.8,-000.3,0013.53,0005.93,0004.99
2023-08-08 00:40:00,SystemResetWarning,0833.3,5.01,000.00,029.1,025.5,000.0,037.4,030.4,33.1,-000.6,0014.21,0005.91,0004.99
2023-08-08 00:41:00,SystemResetWarning,0833.4,5.00,000.00,029.0,025.9,000.0,037.5,030.4,33.5,-000.3,0015.41,0005.88,0004.99
2023-08-08 00:42:00,SystemResetWarning,0833.4,5.00,000.00,029.0,026.2,000.0,037.5,030.5,33.5,-000.1,0015.41,0005.87,0004.98
2023-08-08 00:43:00,SystemResetWarning,0833.5,5.00,000.00,029.0,026.6,000.0,037.5,030.6,33.3,0000.1,0015.21,0005.88,0004.98
2023-08-08 00:44:00,SystemResetWarning,0833.5,5.00,000.00,029.1,027.0,000.0,037.5,030.7,33.0,0000.4,0015.06,0005.92,0004.99
2023-08-08 00:45:00,SystemResetWarning,0833.4,5.00,000.00,029.1,027.3,000.0,037.6,030.8,33.0,0000.9,0016.18,0005.96,0005.01
2023-08-08 00:46:00,SystemResetWarning,0833.4,5.00,000.00,029.1,027.5,000.0,037.6,030.9,33.2,0001.3,0016.52,0006.00,0005.03
2023-08-08 00:47:00,SystemResetWarning,0833.4,4.99,000.00,029.2,027.7,000.0,037.6,030.9,33.4,0001.7,0016.02,0006.01,0005.04
2023-08-08 00:48:00,SystemResetWarning,0833.4,5.00,000.00,029.2,027.9,000.0,037.6,031.0,33.1,0001.8,0015.88,0005.96,0005.04
2023-08-08 00:49:00,SystemResetWarning,0833.3,4.99,000.00,029.3,028.1,000.0,037.7,031.0,33.1,0001.9,0015.49,0005.99,0005.04
2023-08-08 00:50:00,SystemResetWarning,0833.2,4.99,000.00,029.3,026.9,000.0,037.6,030.9,33.1,0001.8,0014.01,0005.99,0005.02
2023-08-08 00:51:00,SystemResetWarning,0833.2,5.00,000.00,029.2,025.7,000.0,037.5,030.6,33.0,0002.2,0013.29,0005.96,0005.02
2023-08-08 00:52:00,SystemResetWarning,0833.2,5.00,000.00,029.2,025.5,000.0,037.4,030.5,33.1,0002.1,0011.86,0005.90,0005.02
2023-08-08 00:53:00,SystemResetWarning,0833.2,5.01,000.00,029.1,025.7,000.0,037.5,030.4,33.6,0001.8,0011.87,0005.89,0005.02
2023-08-08 00:54:00,SystemResetWarning,0833.4,5.01,000.00,029.0,026.1,000.0,037.5,030.5,33.8,0000.5,0012.52,0005.89,0005.03
2023-08-08 00:55:00,SystemResetWarning,0833.6,5.00,000.00,029.0,026.5,000.0,037.5,030.6,33.7,0000.0,0012.47,0005.85,0005.02
2023-08-08 00:56:00,SystemResetWarning,0833.9,4.99,000.00,029.1,026.9,000.0,037.6,030.7,33.5,0000.0,0012.26,0005.85,0005.02
2023-08-08 00:57:00,SystemResetWarning,0834.1,4.99,000.00,029.1,027.2,000.0,037.6,030.8,33.5,0000.0,0011.75,0005.85,0005.01
2023-08-08 00:58:00,SystemResetWarning,0834.3,5.00,000.00,029.1,027.4,000.0,037.6,030.9,33.8,0000.0,0012.55,0005.83,0004.99
2023-08-08 00:59:00,SystemResetWarning,0834.3,5.00,000.00,029.2,027.7,000.0,037.6,030.9,33.7,-000.1,0012.77,0005.83,0004.99
